This is the latest recevied weather packets stored in our database for station/object K9RJT. If no packets are shown the sender has not sent any weather packets the latest 10 day(s).
| Time | Temp. | Humidity | Pressure | Rain* | Wind** | Luminosity | Snow |
|---|---|---|---|---|---|---|---|
| 1777607388 | 16.11° C | 42% | 1012.7 hPa | 0 mm | - | 0 W/m² | - |
| 1777607084 | 16.67° C | 42% | 1012.5 hPa | 0 mm | - | 0 W/m² | - |
| 1777606779 | 16.67° C | 42% | 1012.3 hPa | 0 mm | - | 0 W/m² | - |
| 1777606475 | 16.67° C | 41% | 1012.3 hPa | 0 mm | - | 0 W/m² | - |
| 1777606170 | 17.22° C | 41% | 1012.3 hPa | 0 mm | - | 0 W/m² | - |
| 1777605867 | 17.78° C | 40% | 1012.2 hPa | 0 mm | - | 0 W/m² | - |
| 1777605567 | 18.33° C | 39% | 1012.2 hPa | 0 mm | - | 0 W/m² | - |
| 1777605262 | 18.89° C | 36% | 1012.1 hPa | 0 mm | - | 1 W/m² | - |
| 1777604959 | 18.89° C | 36% | 1011.8 hPa | 0 mm | - | 2 W/m² | - |
| 1777604654 | 19.44° C | 36% | 1011.8 hPa | 0 mm | - | 3 W/m² | - |
| 1777604351 | 20° C | 35% | 1012 hPa | 0 mm | - | 5 W/m² | - |
| 1777604050 | 20° C | 34% | 1012.2 hPa | 0 mm | - | 8 W/m² | - |
| 1777603748 | 20.56° C | 34% | 1012.1 hPa | 0 mm | - | 11 W/m² | - |
| 1777603444 | 20.56° C | 33% | 1012 hPa | 0 mm | - | 14 W/m² | - |
| 1777603140 | 20.56° C | 33% | 1011.7 hPa | 0 mm | - | 18 W/m² | - |
| 1777602835 | 21.11° C | 34% | 1011.7 hPa | 0 mm | - | 22 W/m² | - |
| 1777602530 | 21.11° C | 34% | 1011.8 hPa | 0 mm | - | 27 W/m² | - |
| 1777602227 | 21.11° C | 34% | 1011.8 hPa | 0 mm | - | 32 W/m² | - |
| 1777601923 | 21.67° C | 33% | 1012 hPa | 0 mm | - | 39 W/m² | - |
| 1777601623 | 22.22° C | 33% | 1012.2 hPa | 0 mm | - | 44 W/m² | - |
| 1777601319 | 22.22° C | 33% | 1012 hPa | 0 mm | - | 46 W/m² | - |
| 1777601016 | 22.22° C | 32% | 1012.1 hPa | 0 mm | - | 47 W/m² | - |
| 1777600712 | 22.22° C | 33% | 1011.7 hPa | 0 mm | - | 51 W/m² | - |
| 1777600408 | 22.22° C | 33% | 1011.8 hPa | 0 mm | - | 54 W/m² | - |
| 1777600105 | 22.78° C | 32% | 1012 hPa | 0 mm | - | 58 W/m² | - |
* Rain latest hour (hover to see other rain measurements)
** Current wind speed in m/s (hover to see current wind gust speed)